Flag for Norway Weather past 2 weeks in Tønsberg, Norway

52 °F

Passing clouds.

Feels Like: 45 °F
Forecast: 42 / 47 °F
Wind: 26 mph from South

Location: Oseberg

Current Time: Oct 10, 2015 at 2:40:26 AM

Latest Report: Oct 10, 2015 at 1:50 AM

Visibility: N/A

Pressure: 30.24 "Hg

Humidity: 94%

Dew point: 50 °F

Location of TønsbergLocation

Historic Weather in Tønsberg — Graph


Tønsberg temperature yesterday

Maximum temperature yesterday: 54 °F (at 12:50 AM)
Minimum temperature yesterday: 52 °F (at 1:50 AM)
Average temperature yesterday: 52 °F

Past Weeks' High & Low Weather Summary

High59 °F (Sep 27, 3:50 PM)100% (Sep 27, 6:50 AM)30.60 "Hg (Sep 27, 6:50 AM)
Low48 °F (Sep 25, 5:20 AM)55% (Oct 6, 7:50 PM)29.56 "Hg (Sep 25, 12:50 AM)
Average53 °F83%30.15 "Hg
* Reported Sep 25 12:50 AM — Oct 10 12:50 AM, Tønsberg, Weather by CustomWeather, © 2015

Note: Actual official high and low records may vary slightly from our data, if they occured in-between our weather recording intervals... More about our weather records


Tønsberg weather history for previous 24 hours

Time TempWeatherWind HumidityBarometerVisibility
12:50 AM
Sat, Oct 10
52 °FPassing clouds.25 mph88%30.24 "HgN/A
11:50 PM
Fri, Oct 9
52 °FPassing clouds.28 mph88%30.24 "HgN/A
10:50 PM52 °FPassing clouds.28 mph88%30.24 "HgN/A
9:50 PM52 °FPartly cloudy.31 mph88%30.24 "HgN/A
8:50 PM52 °FPassing clouds.33 mph88%30.21 "HgN/A
7:50 PM52 °FPassing clouds.31 mph88%30.21 "HgN/A
6:50 PM52 °FScattered showers. Partly sunny.28 mph88%30.21 "HgN/A
5:50 PM52 °FScattered showers. Broken clouds.30 mph94%30.21 "HgN/A
5:20 PM52 °FScattered showers. Broken clouds.29 mph94%30.18 "HgN/A
4:20 PM52 °FBroken clouds.25 mph94%30.18 "HgN/A
3:50 PM52 °FScattered showers. Scattered clouds.28 mph88%30.18 "HgN/A
3:20 PM52 °FScattered showers. Scattered clouds.26 mph88%30.18 "HgN/A
2:50 PM52 °FScattered showers. Scattered clouds.28 mph94%30.18 "HgN/A
1:50 PM52 °FScattered showers. Broken clouds.28 mph94%30.18 "HgN/A
1:20 PM52 °FScattered showers. Partly sunny.26 mph94%30.18 "HgN/A
12:50 PM52 °FScattered showers. Partly sunny.22 mph88%30.18 "HgN/A
12:20 PM52 °FScattered showers. Partly sunny.17 mph88%30.18 "HgN/A
11:49 AM52 °FPartly sunny.23 mph94%30.18 "HgN/A
10:50 AM52 °FScattered clouds.15 mph88%30.18 "HgN/A
10:20 AM52 °FPartly sunny.14 mph88%30.18 "HgN/A
9:50 AM52 °FScattered clouds.10 mph82%30.18 "HgN/A
9:20 AM52 °FPassing clouds.12 mph82%30.18 "HgN/A
8:50 AM52 °FScattered clouds.13 mph82%30.18 "HgN/A
8:20 AM52 °FPassing clouds.13 mph82%30.18 "HgN/A
7:50 AM52 °FPassing clouds.12 mph82%30.15 "HgN/A
7:20 AM52 °FPassing clouds.12 mph82%30.15 "HgN/A
6:50 AM52 °FPassing clouds.13 mph82%30.15 "HgN/A
6:20 AM52 °FPassing clouds.14 mph77%30.15 "HgN/A
5:50 AM52 °FPassing clouds.14 mph77%30.15 "HgN/A
4:50 AM52 °FPassing clouds.16 mph77%30.12 "HgN/A
3:50 AM52 °FPassing clouds.20 mph82%30.12 "HgN/A
2:50 AM52 °FPassing clouds.21 mph88%30.09 "HgN/A
Weather by CustomWeather, © 2015

See weather overviewHow to use our weather pages